Regional Weather Roundup
Issued by NWS

Home | Current Version | Previous Version | Graphics & Text | Print | Product List | Glossary On
Versions: 1 2 3 4 5 6 7 8 9 10 11 12 13 14 15 16 17 18 19 20 21 22 23 24 25 26 27 28 29 30 31 32 33 34 35 36 37 38 39 40 41 42 43 44 45 46 47 48 49 50
000
ASUS43 KOAX 180710
RWRNE

WEATHER ROUNDUP FOR NEBRASKA
NATIONAL WEATHER SERVICE OMAHA NE
200 AM CDT THU SEP 18 2014

NOTES: SATELLITE DATA IS BEING USED TO AUGMENT CLOUD COVER ABOVE
       12000 FEET.
       "FAIR" INDICATES FEW OR NO CLOUDS BELOW 12,000 FEET WITH NO
       SIGNIFICANT WEATHER AND/OR OBSTRUCTIONS TO VISIBILITY.

  * THESE STATIONS DO NOT REPORT WEATHER SUCH AS RAIN...SNOW OR FOG.

NEZ001>004-019>022-054>056-180800-
NEBRASKA PANHANDLE

CITY           SKY/WX    TMP DP  RH WIND       PRES   REMARKS
SCOTTSBLUFF    CLEAR     56  53  90 SE6       29.98S
ALLIANCE       CLEAR     62  57  83 S12       29.97S
CHADRON        CLEAR     55  51  86 W9        29.93F
KIMBALL        CLEAR     51  43  75 NW3       30.02F
SIDNEY         CLEAR     58  55  90 SE3       30.02S
$$

NEZ057>060-069>072-079>082-180800-
SOUTHWEST NEBRASKA

CITY           SKY/WX    TMP DP  RH WIND       PRES   REMARKS
NORTH PLATTE   PTCLDY    59  58  96 E3        29.97S FOG
IMPERIAL       PTCLDY    64  61  90 SE7       29.97F
LEXINGTON      PTCLDY    60  58  94 E3        29.98R FOG
MCCOOK         MOCLDY    63  61  93 CALM      29.96S
OGALLALA       PTCLDY    65  62  89 S5        29.98S
$$

NEZ005>010-023>029-035>040-094-180800-
NORTH CENTRAL NEBRASKA

CITY           SKY/WX    TMP DP  RH WIND       PRES   REMARKS
VALENTINE      CLEAR     58  54  86 SE5       29.99F
AINSWORTH      CLEAR     56  54  94 E5        29.99S
BROKEN BOW     FOG       56  54  93 SE3       29.97S VSB 3/4
O`NEILL        PTCLDY    61  57  86 SE5       29.98F
ORD            CLEAR     59  57  93 CALM      29.96S
THEDFORD       CLEAR     59  58  96 CALM      29.98S
$$

NEZ041-046>049-061>064-073>077-083>087-180800-
SOUTH CENTRAL NEBRASKA

CITY           SKY/WX    TMP DP  RH WIND       PRES   REMARKS
GRAND ISLAND   CLEAR     60  58  92 SE3       29.97R
AURORA         CLEAR     58  58 100 CALM      29.96S FOG
HASTINGS       CLEAR     64  59  83 SE8       29.96S
HEBRON         CLEAR     61  59  93 CALM      29.95S FOG
HOLDREGE       CLEAR     60  58  94 CALM      29.96S
KEARNEY *      CLEAR     55  52  88 E7        29.97S
YORK           CLEAR     63  61  94 E5        29.96R
$$

NEZ011>018-030>034-042>045-180800-
NORTHEAST NEBRASKA

CITY           SKY/WX    TMP DP  RH WIND       PRES   REMARKS
NORFOLK        CLEAR     59  57  93 E5        29.97S
ALBION         CLEAR     59  56  89 CALM      29.98S
BLAIR          MOCLDY    62  58  86 E6        29.99R
COLUMBUS *     PTCLDY    59  55  88 E3        29.98R
FREMONT        PTCLDY    64  60  88 E7        29.98S
TEKAMAH        CLEAR     57  54  89 S3        29.98S
WAYNE          PTCLDY    54  52  95 CALM      29.99S
$$

NEZ050>053-065>068-078-088>093-180800-
SOUTHEAST NEBRASKA

CITY           SKY/WX    TMP DP  RH WIND       PRES   REMARKS
LINCOLN        MOCLDY    68  61  78 SE10      29.96F
OMAHA EPPLEY   PTCLDY    64  58  80 SE8       29.99S
BEATRICE       CLEAR     62  61  97 E3        29.95S
FALLS CITY     PTCLDY    62  61  96 E6        29.95S
NEBRASKA CITY  MOCLDY    62  60  91 E5        29.97S
PLATTSMOUTH    MOCLDY    61  58  90 E5        29.98S
$$

NEZ044-045-051>053-067-180800-
OMAHA AREA

CITY           SKY/WX    TMP DP  RH WIND       PRES   REMARKS
OMAHA EPPLEY   PTCLDY    64  58  80 SE8       29.99S
BLAIR          MOCLDY    62  58  86 E6        29.99R
FREMONT        PTCLDY    64  60  88 E7        29.98S
MILLARD        PTCLDY    64  60  84 E3        29.98S
OFFUTT AFB     MOCLDY    62  62  99 E5        29.98S
PLATTSMOUTH    MOCLDY    61  58  90 E5        29.98S
WAHOO          FAIR      60  57  90 E6        29.97S
$$



USA.gov is the U.S. government's official web portal to all federal, state and local government web resources and services.